period_start,C,m1,H,J0,J1,J2,J3,J4,J5,JA,JB,JC,JD,JJ,JK,JN,#
2016-03-26 00:03:27,0.17,1.56,0.00,13.48,19.37,23.33,15.16,47.46,1018.08,2066.91,2985.34,2762.27,3125.40,599.96,616.79,9.45,0000 0000 0000 0000 000000
2016-03-26 00:08:28,0.16,1.57,0.00,13.47,19.39,23.39,15.15,47.52,1018.07,2066.79,2982.20,2760.09,3122.82,599.72,616.44,9.50,0000 0000 0000 0000 000000
2016-03-26 00:13:30,0.17,1.58,0.00,13.50,19.41,23.38,15.17,47.56,1018.06,2066.67,2979.03,2757.92,3120.30,599.99,616.65,9.55,0000 0000 0000 0000 000000
2016-03-26 00:18:31,0.13,1.58,0.00,13.59,19.43,23.41,15.20,47.58,1018.05,2066.38,2975.74,2755.66,3117.72,600.06,616.58,9.60,0000 0000 0000 0000 000000
2016-03-26 00:23:32,0.16,1.59,0.00,13.60,19.46,23.40,15.24,47.64,1018.05,2066.08,2972.38,2753.40,3115.12,600.06,616.44,9.65,0000 0000 0000 0000 000000
2016-03-26 00:28:33,0.17,1.60,0.00,13.60,19.48,23.40,15.16,47.53,1018.05,2066.05,2969.11,2751.24,3112.49,599.88,616.25,9.70,0000 0000 0000 0000 000000
2016-03-26 00:33:34,0.17,1.61,0.00,13.61,19.51,23.42,15.17,47.61,1018.03,2066.02,2965.81,2749.08,3109.95,599.86,616.26,9.75,0000 0000 0000 0000 000000
2016-03-26 00:38:36,0.18,1.62,0.00,13.66,19.53,23.42,15.19,47.60,1018.06,2066.00,2962.51,2746.81,3107.28,600.05,616.44,9.80,0000 0000 0000 0000 000000
2016-03-26 00:43:37,0.18,1.63,0.00,13.66,19.56,23.48,15.15,47.72,1017.99,2066.00,2959.14,2744.48,3104.62,599.90,616.12,9.85,0000 0000 0000 0000 000000
2016-03-26 00:48:38,0.18,1.64,0.00,13.67,19.58,23.49,15.21,47.65,1017.96,2066.00,2955.79,2742.20,3101.98,600.12,616.37,9.90,0000 0000 0000 0000 000000
2016-03-26 00:53:40,0.17,1.65,0.00,13.69,19.61,23.49,15.18,47.71,1017.92,2065.99,2952.55,2739.95,3099.36,599.99,616.21,9.95,0000 0000 0000 0000 000000
2016-03-26 00:58:41,0.16,1.65,0.00,13.70,19.64,23.50,15.09,47.57,1017.92,2065.97,2949.39,2737.78,3096.85,599.89,616.11,10.00,0000 0000 0000 0000 000000
2016-03-26 01:03:43,0.17,1.66,0.00,13.74,19.66,23.56,15.07,47.66,1017.98,2065.93,2946.24,2735.54,3094.25,599.55,615.70,10.05,0000 0000 0000 0000 000000
2016-03-26 01:08:44,0.13,1.67,0.00,13.78,19.69,23.56,15.15,47.77,1017.99,2065.55,2942.93,2733.24,3091.60,599.91,615.99,10.10,0000 0000 0000 0000 000000
2016-03-26 01:13:45,0.16,1.68,0.00,13.81,19.71,23.59,15.18,47.71,1017.95,2065.12,2939.56,2730.92,3088.93,600.12,616.08,10.15,0000 0000 0000 0000 000000
2016-03-26 01:18:46,0.17,1.69,0.00,13.84,19.74,23.58,15.09,47.63,1017.90,2065.05,2936.19,2728.63,3086.30,599.62,615.50,10.20,0000 0000 0000 0000 000000
2016-03-26 01:23:48,0.17,1.70,0.00,13.94,19.78,23.61,15.14,47.75,1017.87,2065.02,2932.97,2726.36,3083.68,599.89,615.55,10.25,0000 0000 0000 0000 000000
2016-03-26 01:28:49,0.19,1.70,0.00,13.97,19.81,23.61,15.15,47.67,1017.87,2065.00,2929.75,2724.11,3081.07,599.93,615.47,10.30,0000 0000 0000 0000 000000
2016-03-26 01:33:50,0.18,1.71,0.00,14.06,19.84,23.66,15.10,47.62,1017.91,2065.00,2926.35,2721.81,3078.40,600.01,615.39,10.35,0000 0000 0000 0000 000000
2016-03-26 01:38:51,0.17,1.72,0.00,14.07,19.87,23.67,15.07,47.70,1017.96,2064.98,2923.09,2719.53,3075.81,600.10,615.55,10.40,0000 0000 0000 0000 000000
2016-03-26 01:43:53,0.18,1.73,0.00,14.07,19.89,23.67,15.15,47.69,1017.91,2064.96,2919.82,2717.29,3073.26,599.79,615.11,10.45,0000 0000 0000 0000 000000
2016-03-26 01:48:54,0.17,1.74,0.00,14.06,19.92,23.72,15.09,47.62,1017.75,2064.85,2916.57,2715.01,3070.71,599.98,615.25,10.50,0000 0000 0000 0000 000000
2016-03-26 01:53:55,0.14,1.75,0.00,14.11,19.95,23.72,15.16,47.76,1017.72,2064.57,2913.36,2712.82,3068.19,600.30,615.45,10.55,0000 0000 0000 0000 000000
2016-03-26 01:58:56,0.14,1.76,0.00,14.15,19.98,23.76,15.08,47.67,1017.71,2064.14,2909.97,2710.50,3065.58,599.75,614.82,10.60,0000 0000 0000 0000 000000
2016-03-26 02:03:58,0.19,1.77,0.00,14.16,20.01,23.78,15.14,47.75,1017.69,2064.04,2906.57,2708.18,3062.91,600.09,615.02,10.65,0000 0000 0000 0000 000000
2016-03-26 02:08:59,0.18,1.77,0.00,14.20,20.05,23.82,15.12,47.74,1017.69,2064.01,2903.26,2705.92,3060.27,599.84,614.77,10.70,0000 0000 0000 0000 000000
2016-03-26 02:14:01,0.18,1.78,0.00,14.27,20.08,23.81,15.08,47.71,1017.69,2064.00,2899.89,2703.58,3057.54,599.97,614.66,10.75,0000 0000 0000 0000 000000
2016-03-26 02:19:02,0.19,1.79,0.00,14.36,20.11,23.82,15.08,47.72,1017.65,2063.99,2896.51,2701.25,3054.93,599.73,614.42,10.80,0000 0000 0000 0000 000000
2016-03-26 02:24:03,0.19,1.80,0.00,14.34,20.14,23.90,15.13,47.76,1017.62,2063.98,2893.27,2699.01,3052.28,600.27,614.88,10.85,0000 0000 0000 0000 000000
2016-03-26 02:29:05,0.18,1.81,0.00,14.40,20.17,23.90,15.03,47.78,1017.61,2063.95,2889.88,2696.72,3049.62,599.79,614.24,10.90,0000 0000 0000 0000 000000
2016-03-26 02:34:06,0.15,1.82,0.00,14.49,20.19,23.89,15.00,47.71,1017.61,2063.76,2886.55,2694.42,3047.00,599.85,614.24,10.95,0000 0000 0000 0000 000000
2016-03-26 02:39:07,0.14,1.83,0.00,14.53,20.22,23.90,15.14,47.75,1017.61,2063.27,2883.27,2692.20,3044.39,600.16,614.25,11.00,0000 0000 0000 0000 000000
2016-03-26 02:44:09,0.17,1.84,0.00,14.55,20.25,23.92,15.03,47.69,1017.61,2063.12,2880.08,2689.97,3041.86,599.93,614.07,11.05,0000 0000 0000 0000 000000
2016-03-26 02:49:10,0.18,1.85,0.00,14.63,20.27,24.01,15.06,47.73,1017.61,2063.04,2876.89,2687.71,3039.25,599.92,613.89,11.10,0000 0000 0000 0000 000000
2016-03-26 02:54:11,0.17,1.85,0.00,14.64,20.29,24.01,15.12,47.75,1017.62,2063.01,2873.62,2685.56,3036.64,600.09,614.02,11.15,0000 0000 0000 0000 000000
2016-03-26 02:59:13,0.18,1.86,0.00,14.67,20.32,24.03,15.04,47.64,1017.63,2063.00,2870.42,2683.32,3034.09,599.88,613.87,11.20,0000 0000 0000 0000 000000
2016-03-26 03:04:14,0.18,1.87,0.00,14.72,20.34,24.08,15.07,47.73,1017.61,2063.00,2867.21,2681.11,3031.52,599.85,613.62,11.25,0000 0000 0000 0000 000000
2016-03-26 03:09:15,0.18,1.88,0.00,14.75,20.37,24.12,15.10,47.73,1017.61,2063.00,2863.99,2678.92,3028.93,600.15,613.92,11.30,0000 0000 0000 0000 000000
2016-03-26 03:14:17,0.17,1.89,0.00,14.75,20.39,24.15,15.06,47.70,1017.60,2062.96,2860.81,2676.67,3026.37,600.00,613.77,11.35,0000 0000 0000 0000 000000
2016-03-26 03:19:18,0.17,1.90,0.00,14.82,20.42,24.18,15.08,47.92,1017.60,2062.90,2857.56,2674.43,3023.80,600.09,613.61,11.40,0000 0000 0000 0000 000000
2016-03-26 03:24:20,0.17,1.91,0.00,14.90,20.45,24.22,15.09,47.74,1017.61,2062.83,2854.36,2672.27,3021.25,599.84,613.24,11.45,0000 0000 0000 0000 000000
2016-03-26 03:29:21,0.14,1.92,0.00,14.96,20.48,24.31,15.03,47.64,1017.61,2062.56,2851.27,2670.17,3018.84,599.78,612.93,11.51,0000 0000 0000 0000 000000
2016-03-26 03:34:22,0.14,1.93,0.00,14.93,20.51,24.30,15.06,47.59,1017.62,2062.08,2848.22,2668.00,3016.37,599.88,613.25,11.56,0000 0000 0000 0000 000000
2016-03-26 03:39:24,0.18,1.93,0.00,14.96,20.54,24.36,15.06,47.63,1017.68,2062.02,2845.01,2665.84,3013.83,599.85,613.15,11.61,0000 0000 0000 0000 000000
2016-03-26 03:44:25,0.17,1.94,0.00,15.02,20.58,24.39,15.07,47.71,1017.72,2062.01,2841.96,2663.72,3011.40,600.27,613.48,11.66,0000 0000 0000 0000 000000
2016-03-26 03:49:26,0.17,1.95,0.00,15.36,20.62,24.44,14.98,47.67,1017.88,2062.00,2839.05,2661.63,3009.03,599.81,612.35,11.71,0000 0000 0000 0000 000000
2016-03-26 03:54:28,0.17,1.96,0.00,15.50,20.66,24.56,15.03,47.59,1017.95,2061.99,2836.05,2659.48,3006.69,599.79,612.11,11.76,0000 0000 0000 0000 000000
2016-03-26 03:59:29,0.18,1.97,0.00,15.52,20.70,24.53,15.04,47.63,1017.98,2061.97,2832.92,2657.29,3004.20,600.26,612.63,11.81,0000 0000 0000 0000 000000
2016-03-26 04:04:31,0.16,1.98,0.00,15.56,20.73,24.56,15.00,47.56,1018.02,2061.82,2829.91,2655.21,3001.75,600.19,612.45,11.86,0000 0000 0000 0000 000000
2016-03-26 04:09:32,0.11,1.98,0.00,15.68,20.77,24.57,15.06,47.67,1018.03,2061.25,2826.88,2653.08,2999.32,600.00,611.92,11.91,0000 0000 0000 0000 000000
2016-03-26 04:14:33,0.16,1.99,0.00,15.80,20.81,24.54,14.93,47.50,1018.03,2061.02,2823.82,2650.94,2996.88,600.23,611.97,11.96,0000 0000 0000 0000 000000
2016-03-26 04:19:35,0.17,2.00,0.00,15.89,20.85,24.57,14.98,47.46,1018.04,2061.00,2820.83,2648.81,2994.45,599.82,611.36,12.01,0000 0000 0000 0000 000000
2016-03-26 04:24:36,0.17,2.01,0.00,15.96,20.89,24.67,14.90,47.43,1018.01,2061.00,2817.88,2646.73,2992.05,599.97,611.36,12.06,0000 0000 0000 0000 000000
2016-03-26 04:29:37,0.17,2.02,0.00,16.01,20.94,24.73,15.00,47.55,1017.93,2060.98,2814.97,2644.61,2989.57,600.07,611.25,12.11,0000 0000 0000 0000 000000
2016-03-26 04:34:39,0.11,2.03,0.00,16.10,20.99,24.78,14.98,47.42,1017.79,2060.56,2812.00,2642.44,2987.06,599.84,610.80,12.16,0000 0000 0000 0000 000000
2016-03-26 04:39:40,0.14,2.03,0.00,16.19,21.05,24.80,14.94,47.48,1017.77,2060.05,2809.11,2640.36,2984.70,599.88,610.70,12.21,0000 0000 0000 0000 000000
2016-03-26 04:44:42,0.17,2.04,0.00,16.30,21.10,24.83,14.96,47.44,1017.93,2060.01,2806.14,2638.29,2982.28,599.99,610.53,12.26,0000 0000 0000 0000 000000
2016-03-26 04:49:42,0.17,2.05,0.00,16.35,21.16,24.92,15.01,47.44,1018.05,2060.00,2803.21,2636.23,2979.90,600.42,611.03,12.31,0000 0000 0000 0000 000000
2016-03-26 04:54:44,0.16,2.06,0.00,16.39,21.22,24.97,14.95,47.56,1018.07,2059.90,2800.28,2634.10,2977.40,599.98,610.50,12.36,0000 0000 0000 0000 000000
2016-03-26 04:59:45,0.10,2.06,0.00,16.51,21.28,25.02,14.95,47.35,1018.06,2059.24,2797.29,2631.96,2974.98,600.09,610.37,12.41,0000 0000 0000 0000 000000
2016-03-26 05:04:46,0.17,2.07,0.00,16.62,21.34,25.00,14.93,47.39,1018.04,2059.01,2794.31,2629.81,2972.48,600.32,610.38,12.46,0000 0000 0000 0000 000000
2016-03-26 05:09:47,0.18,2.08,0.00,16.66,21.40,25.07,14.89,47.42,1018.03,2059.00,2791.23,2627.68,2969.98,599.77,609.69,12.51,0000 0000 0000 0000 000000
2016-03-26 05:14:48,0.17,2.09,0.00,16.74,21.47,25.12,14.93,47.38,1017.98,2058.92,2788.10,2625.45,2967.41,599.96,609.67,12.56,0000 0000 0000 0000 000000
2016-03-26 05:19:50,0.10,2.10,0.00,16.84,21.53,25.20,14.94,47.31,1018.02,2058.38,2785.15,2623.40,2964.98,600.16,609.70,12.61,0000 0000 0000 0000 000000
2016-03-26 05:24:51,0.15,2.10,0.00,16.91,21.59,25.25,15.00,47.27,1018.05,2058.02,2782.17,2621.43,2962.55,600.31,609.73,12.66,0000 0000 0000 0000 000000
2016-03-26 05:29:52,0.18,2.11,0.00,16.92,21.65,25.29,14.93,47.29,1018.05,2058.00,2779.25,2619.36,2960.15,599.98,609.34,12.71,0000 0000 0000 0000 000000
2016-03-26 05:34:53,0.17,2.12,0.00,16.98,21.71,25.36,14.94,47.24,1018.03,2057.91,2776.22,2617.20,2957.63,599.91,609.21,12.76,0000 0000 0000 0000 000000
2016-03-26 05:39:54,0.11,2.13,0.00,17.06,21.77,25.46,15.03,47.26,1018.04,2057.16,2773.11,2614.96,2955.03,600.25,609.28,12.81,0000 0000 0000 0000 000000
2016-03-26 05:44:56,0.17,2.14,0.00,17.06,21.83,25.58,14.88,47.23,1018.02,2057.00,2770.10,2612.82,2952.54,599.91,609.06,12.86,0000 0000 0000 0000 000000
2016-03-26 05:49:57,0.18,2.14,0.00,17.13,21.89,25.67,14.91,47.26,1018.04,2056.99,2767.14,2610.72,2950.11,599.90,608.94,12.91,0000 0000 0000 0000 000000
2016-03-26 05:54:58,0.16,2.15,0.00,17.19,21.95,25.76,14.91,47.20,1018.03,2056.91,2764.11,2608.59,2947.65,599.78,608.57,12.96,0000 0000 0000 0000 000000
2016-03-26 06:00:00,0.11,2.16,0.00,17.25,22.01,25.85,14.97,47.23,1018.04,2056.36,2761.10,2606.43,2945.21,600.11,608.80,13.01,0000 0000 0000 0000 000000
2016-03-26 06:05:01,0.16,2.17,0.00,17.23,22.07,25.92,14.89,47.29,1017.99,2056.04,2758.15,2604.34,2942.86,599.87,608.48,13.06,0000 0000 0000 0000 000000
2016-03-26 06:10:02,0.18,2.18,0.00,17.30,22.13,26.03,14.85,47.28,1017.95,2056.00,2755.15,2602.27,2940.41,600.17,608.52,13.11,0000 0000 0000 0000 000000
2016-03-26 06:15:03,0.18,2.19,0.00,17.30,22.19,26.11,14.93,47.27,1017.94,2055.96,2752.21,2600.12,2937.99,599.85,608.38,13.16,0000 0000 0000 0000 000000
2016-03-26 06:20:05,0.11,2.19,0.00,17.37,22.25,26.20,14.87,47.33,1017.75,2055.57,2749.35,2597.94,2935.50,600.00,608.27,13.21,0000 0000 0000 0000 000000
2016-03-26 06:25:06,0.16,2.20,0.00,17.46,22.31,26.21,14.80,47.26,1017.69,2055.07,2746.32,2595.79,2932.97,599.64,607.80,13.26,0000 0000 0000 0000 000000
2016-03-26 06:30:07,0.18,2.21,0.00,17.49,22.37,26.28,14.84,47.29,1017.64,2055.00,2743.37,2593.59,2930.44,600.06,608.00,13.31,0000 0000 0000 0000 000000
2016-03-26 06:35:08,0.18,2.22,0.00,17.87,22.43,26.25,14.88,47.36,1017.62,2054.98,2740.26,2591.40,2927.98,600.17,607.30,13.36,0000 0000 0000 0000 000000
2016-03-26 06:40:09,0.12,2.23,0.00,18.19,22.48,26.49,14.77,47.31,1017.60,2054.52,2737.16,2589.15,2925.37,599.93,606.39,13.41,0000 0000 0000 0000 000000
2016-03-26 06:45:11,0.16,2.23,0.00,17.95,22.52,26.67,14.90,47.34,1017.61,2054.04,2734.07,2587.03,2922.88,600.17,607.14,13.46,0000 0000 0000 0000 000000
2016-03-26 06:50:12,0.18,2.24,0.00,17.88,22.56,26.59,14.83,47.31,1017.62,2054.01,2731.06,2584.90,2920.42,600.07,607.21,13.51,0000 0000 0000 0000 000000
2016-03-26 06:55:13,0.18,2.25,0.00,17.83,22.60,26.56,14.81,47.17,1017.62,2053.98,2728.10,2582.78,2918.00,599.89,607.07,13.56,0000 0000 0000 0000 000000
2016-03-26 07:00:14,0.17,2.26,0.00,17.80,22.64,26.57,14.96,47.33,1017.62,2053.96,2725.17,2580.72,2915.58,600.34,607.54,13.61,0000 0000 0000 0000 000000
2016-03-26 07:05:16,0.14,2.27,0.00,17.80,22.68,26.64,14.82,47.27,1017.64,2053.71,2722.27,2578.70,2913.24,599.65,607.02,13.66,0000 0000 0000 0000 000000
2016-03-26 07:10:17,0.12,2.27,0.00,17.78,22.72,26.68,14.83,47.15,1017.70,2053.12,2719.34,2576.62,2910.85,599.82,607.12,13.71,0000 0000 0000 0000 000000
2016-03-26 07:15:18,0.17,2.28,0.00,17.80,22.76,26.81,14.81,47.17,1017.77,2053.00,2716.52,2574.61,2908.45,599.66,607.06,13.77,0000 0000 0000 0000 000000
2016-03-26 07:20:20,0.17,2.29,0.00,17.79,22.80,26.92,14.87,47.17,1017.73,2053.00,2713.65,2572.55,2906.11,600.07,607.46,13.82,0000 0000 0000 0000 000000
2016-03-26 07:25:21,0.17,2.30,0.00,17.81,22.84,26.93,14.91,47.30,1017.71,2052.97,2710.84,2570.59,2903.79,599.90,607.26,13.87,0000 0000 0000 0000 000000
2016-03-26 07:30:23,0.14,2.31,0.00,17.86,22.88,26.97,15.00,47.24,1017.64,2052.60,2707.81,2568.45,2901.35,599.79,606.96,13.92,0000 0000 0000 0000 000000
2016-03-26 07:35:24,0.14,2.31,0.00,17.83,22.92,26.95,14.90,47.22,1017.62,2052.10,2704.95,2566.45,2899.01,600.05,607.28,13.97,0000 0000 0000 0000 000000
2016-03-26 07:40:25,0.17,2.32,0.00,17.79,22.96,26.91,14.84,47.22,1017.69,2052.00,2702.05,2564.43,2896.65,599.65,607.03,14.02,0000 0000 0000 0000 000000
2016-03-26 07:45:26,0.18,2.33,0.00,17.78,22.99,26.94,14.94,47.22,1017.76,2052.00,2699.17,2562.45,2894.35,600.14,607.55,14.07,0000 0000 0000 0000 000000
2016-03-26 07:50:28,0.17,2.34,0.00,17.76,23.02,26.95,14.89,47.16,1017.71,2052.00,2696.34,2560.53,2892.08,600.00,607.44,14.12,0000 0000 0000 0000 000000
2016-03-26 07:55:30,0.17,2.35,0.00,17.76,23.05,26.89,14.89,47.29,1017.71,2051.97,2693.53,2558.70,2889.85,599.92,607.35,14.17,0000 0000 0000 0000 000000
2016-03-26 08:00:31,0.10,2.36,0.00,17.76,23.08,26.91,14.84,47.17,1017.66,2051.53,2690.70,2556.82,2887.57,599.89,607.33,14.22,0000 0000 0000 0000 000000
2016-03-26 08:05:32,0.15,2.36,0.00,17.84,23.11,27.14,14.99,47.25,1017.62,2051.24,2688.02,2554.96,2885.37,600.55,607.75,14.27,0000 0000 0000 0000 000000
2016-03-26 08:10:33,0.16,2.37,0.00,17.80,23.13,27.11,14.91,47.30,1017.61,2051.03,2685.28,2553.02,2883.18,600.07,607.38,14.32,0000 0000 0000 0000 000000
2016-03-26 08:15:34,0.17,2.38,0.00,17.76,23.15,27.07,14.93,47.21,1017.59,2051.01,2682.50,2551.18,2881.04,600.08,607.50,14.37,0000 0000 0000 0000 000000
2016-03-26 08:20:35,0.16,2.39,0.00,17.77,23.18,27.02,14.97,47.20,1017.59,2051.00,2679.76,2549.23,2878.89,600.41,607.69,14.42,0000 0000 0000 0000 000000
2016-03-26 08:25:37,0.16,2.40,0.00,17.77,23.19,27.06,14.90,47.11,1017.59,2051.00,2677.01,2547.41,2876.83,600.23,607.61,14.47,0000 0000 0000 0000 000000
2016-03-26 08:30:38,0.17,2.41,0.00,17.77,23.21,27.08,14.91,46.98,1017.59,2050.99,2674.26,2545.54,2874.66,599.81,607.08,14.52,0000 0000 0000 0000 000000
2016-03-26 08:35:39,0.17,2.41,0.00,17.78,23.23,27.06,14.89,47.04,1017.60,2050.98,2671.55,2543.69,2872.53,600.00,607.33,14.57,0000 0000 0000 0000 000000
2016-03-26 08:40:40,0.17,2.42,0.00,17.79,23.24,27.06,14.89,47.06,1017.59,2050.97,2668.82,2541.79,2870.35,600.12,607.43,14.62,0000 0000 0000 0000 000000
2016-03-26 08:45:41,0.16,2.43,0.00,17.87,23.26,27.04,14.86,47.05,1017.60,2050.91,2666.14,2539.93,2868.20,599.94,607.14,14.67,0000 0000 0000 0000 000000
2016-03-26 08:50:43,0.12,2.44,0.00,17.86,23.28,27.06,14.89,47.07,1017.64,2050.55,2663.55,2538.13,2866.12,600.01,607.18,14.72,0000 0000 0000 0000 000000
2016-03-26 08:55:44,0.12,2.45,0.00,17.86,23.30,27.12,14.91,47.03,1017.67,2050.23,2660.90,2536.35,2864.02,600.06,607.26,14.77,0000 0000 0000 0000 000000
2016-03-26 09:00:45,0.16,2.45,0.00,17.81,23.32,27.15,14.91,47.00,1017.84,2050.09,2658.29,2534.53,2861.96,599.93,607.34,14.82,0000 0000 0000 0000 000000
2016-03-26 09:05:47,0.16,2.46,0.00,17.80,23.34,27.16,14.86,46.91,1017.83,2050.06,2655.61,2532.78,2859.91,599.57,607.06,14.87,0000 0000 0000 0000 000000
2016-03-26 09:10:48,0.16,2.47,0.00,17.78,23.35,27.26,14.87,47.01,1017.76,2050.01,2653.02,2530.95,2857.77,599.82,607.23,14.92,0000 0000 0000 0000 000000
2016-03-26 09:15:50,0.15,2.48,0.00,17.82,23.37,27.31,14.88,47.02,1017.62,2050.00,2650.44,2529.23,2855.78,599.89,607.14,14.97,0000 0000 0000 0000 000000
2016-03-26 09:20:51,0.16,2.48,0.00,17.73,23.37,27.36,14.96,47.13,1017.61,2050.00,2647.95,2527.60,2853.79,600.13,607.45,15.02,0000 0000 0000 0000 000000
2016-03-26 09:25:52,0.15,2.49,0.00,17.70,23.38,27.20,14.94,47.14,1017.63,2050.00,2645.47,2525.82,2851.86,599.85,607.31,15.07,0000 0000 0000 0000 000000
2016-03-26 09:30:54,0.15,2.50,0.00,17.68,23.39,27.23,14.93,47.08,1017.63,2050.00,2643.00,2524.19,2849.93,600.17,607.72,15.12,0000 0000 0000 0000 000000
2016-03-26 09:35:55,0.16,2.51,0.00,17.65,23.39,27.08,14.91,46.98,1017.70,2050.00,2640.44,2522.44,2847.92,599.80,607.46,15.17,0000 0000 0000 0000 000000
2016-03-26 09:40:55,0.16,2.52,0.00,17.69,23.40,26.92,14.92,47.00,1017.75,2050.00,2637.92,2520.72,2845.89,600.07,607.67,15.22,0000 0000 0000 0000 000000
2016-03-26 09:45:57,0.15,2.52,0.00,17.67,23.40,26.84,14.87,47.02,1017.67,2050.00,2635.37,2519.07,2843.96,599.73,607.40,15.27,0000 0000 0000 0000 000000
2016-03-26 09:50:58,0.15,2.53,0.00,17.64,23.40,27.29,14.93,46.98,1017.66,2049.98,2632.89,2517.38,2841.97,599.79,607.47,15.32,0000 0000 0000 0000 000000
2016-03-26 09:56:00,0.16,2.54,0.00,17.63,23.39,27.34,14.96,47.09,1017.61,2049.98,2630.34,2515.70,2840.05,600.18,607.77,15.37,0000 0000 0000 0000 000000
2016-03-26 10:01:00,0.14,2.55,0.00,17.60,23.37,27.26,14.96,47.03,1017.62,2049.98,2627.97,2514.07,2838.15,600.14,607.84,15.42,0000 0000 0000 0000 000000
2016-03-26 10:06:02,0.15,2.56,0.00,17.60,23.37,27.29,14.88,47.02,1017.63,2049.98,2625.49,2512.48,2836.26,599.90,607.75,15.47,0000 0000 0000 0000 000000
2016-03-26 10:11:03,0.15,2.56,0.00,17.58,23.37,27.24,14.92,46.88,1017.67,2049.99,2623.15,2510.85,2834.36,600.00,607.75,15.52,0000 0000 0000 0000 000000
2016-03-26 10:16:04,0.15,2.57,0.00,17.58,23.35,27.24,14.94,47.02,1017.69,2049.98,2620.73,2509.20,2832.46,599.77,607.55,15.57,0000 0000 0000 0000 000000
2016-03-26 10:21:06,0.16,2.58,0.00,17.55,23.34,27.25,14.95,47.13,1017.65,2049.99,2618.24,2507.56,2830.56,600.08,607.95,15.62,0000 0000 0000 0000 000000
2016-03-26 10:26:07,0.15,2.59,0.00,17.53,23.32,27.17,14.94,47.23,1017.62,2049.99,2615.81,2505.96,2828.73,600.06,607.80,15.67,0000 0000 0000 0000 000000
2016-03-26 10:31:08,0.15,2.59,0.00,17.53,23.32,27.17,14.94,47.21,1017.59,2049.99,2613.39,2504.47,2826.88,600.13,607.97,15.72,0000 0000 0000 0000 000000
2016-03-26 10:36:10,0.14,2.60,0.00,17.50,23.30,27.11,14.93,47.08,1017.59,2049.99,2611.29,2502.90,2825.12,600.41,608.24,15.77,0000 0000 0000 0000 000000
2016-03-26 10:41:11,0.16,2.61,0.00,17.48,23.29,27.10,15.00,47.05,1017.59,2049.99,2608.76,2501.30,2823.23,600.28,608.02,15.82,0000 0000 0000 0000 000000
2016-03-26 10:46:13,0.15,2.62,0.00,17.41,23.27,27.06,14.97,46.92,1017.59,2049.99,2606.33,2499.68,2821.36,600.15,608.20,15.87,0000 0000 0000 0000 000000
2016-03-26 10:51:14,0.14,2.62,0.00,17.43,23.26,26.99,14.97,47.00,1017.59,2049.99,2603.95,2498.14,2819.59,600.15,608.20,15.92,0000 0000 0000 0000 000000
2016-03-26 10:56:15,0.15,2.63,0.00,17.40,23.24,26.95,14.96,47.13,1017.59,2049.99,2601.53,2496.61,2817.81,600.01,608.12,15.97,0000 0000 0000 0000 000000
2016-03-26 11:01:17,0.14,2.64,0.00,17.43,23.24,26.79,14.89,47.08,1017.55,2050.01,2599.12,2495.12,2815.98,599.94,607.95,16.02,0000 0000 0000 0000 000000
2016-03-26 11:06:18,0.15,2.65,0.00,17.43,23.22,26.70,14.89,47.03,1017.35,2050.02,2596.78,2493.62,2814.21,599.78,607.71,16.07,0000 0000 0000 0000 000000
2016-03-26 11:11:20,0.14,2.65,0.00,17.46,23.22,26.60,14.88,47.00,1017.20,2050.00,2594.46,2492.05,2812.39,599.98,607.76,16.13,0000 0000 0000 0000 000000
2016-03-26 11:16:21,0.14,2.66,0.00,17.48,23.22,26.53,14.89,47.08,1017.14,2050.01,2592.34,2490.64,2810.72,600.05,607.55,16.18,0000 0000 0000 0000 000000
2016-03-26 11:21:22,0.15,2.67,0.00,17.48,23.21,26.61,14.95,47.16,1017.12,2050.01,2590.00,2489.09,2808.91,600.02,607.69,16.23,0000 0000 0000 0000 000000
2016-03-26 11:26:24,0.14,2.68,0.00,17.43,23.19,26.58,14.85,47.13,1017.14,2050.01,2587.77,2487.63,2807.26,599.66,607.38,16.28,0000 0000 0000 0000 000000
2016-03-26 11:31:25,0.13,2.68,0.00,17.44,23.19,26.49,14.87,47.21,1017.14,2050.01,2585.62,2486.20,2805.57,599.79,607.52,16.33,0000 0000 0000 0000 000000
2016-03-26 11:36:26,0.15,2.69,0.00,17.45,23.17,26.45,14.89,47.18,1017.14,2050.03,2583.39,2484.68,2803.83,599.90,607.62,16.38,0000 0000 0000 0000 000000
2016-03-26 11:41:28,0.14,2.70,0.00,17.42,23.17,26.57,14.87,47.12,1017.13,2050.05,2581.17,2483.27,2802.13,599.77,607.54,16.43,0000 0000 0000 0000 000000
2016-03-26 11:46:29,0.14,2.71,0.00,17.32,23.14,26.59,14.90,47.09,1017.12,2050.03,2578.89,2481.78,2800.41,600.02,608.00,16.48,0000 0000 0000 0000 000000
2016-03-26 11:51:30,0.14,2.71,0.00,17.27,23.13,26.50,14.92,47.13,1017.11,2050.03,2576.68,2480.36,2798.73,599.98,608.08,16.53,0000 0000 0000 0000 000000
2016-03-26 11:56:31,0.14,2.72,0.00,17.25,23.12,26.49,14.90,47.13,1017.10,2050.05,2574.53,2478.84,2797.00,600.07,608.16,16.58,0000 0000 0000 0000 000000
2016-03-26 12:01:32,0.14,2.73,0.00,17.24,23.11,26.47,14.89,47.13,1017.08,2050.14,2572.40,2477.47,2795.38,600.02,608.43,16.63,0000 0000 0000 0000 000000
2016-03-26 12:06:34,0.15,2.74,0.00,17.23,23.09,26.43,14.88,47.08,1017.09,2050.30,2570.23,2476.07,2793.74,599.82,607.96,16.68,0000 0000 0000 0000 000000
2016-03-26 12:11:35,0.15,2.74,0.00,17.23,23.08,26.31,14.89,47.06,1017.05,2050.42,2568.08,2474.63,2792.10,599.95,608.12,16.73,0000 0000 0000 0000 000000
2016-03-26 12:16:36,0.15,2.75,0.00,17.22,23.07,26.29,14.92,47.04,1016.96,2050.59,2565.86,2473.19,2790.44,600.05,608.17,16.78,0000 0000 0000 0000 000000
2016-03-26 12:21:38,0.16,2.76,0.00,17.22,23.05,26.27,14.97,47.07,1016.92,2050.81,2563.70,2471.81,2788.78,599.99,608.07,16.83,0000 0000 0000 0000 000000
2016-03-26 12:26:39,0.13,2.77,0.00,17.21,23.04,26.26,14.91,47.10,1016.90,2050.91,2561.53,2470.40,2787.12,599.64,607.73,16.88,0000 0000 0000 0000 000000
2016-03-26 12:31:40,0.13,2.77,0.00,17.18,23.03,26.23,14.93,47.14,1016.81,2050.96,2559.55,2469.02,2785.54,600.04,608.13,16.93,0000 0000 0000 0000 000000
2016-03-26 12:36:41,0.14,2.78,0.00,17.20,23.02,26.17,14.87,47.23,1016.64,2050.98,2557.61,2467.64,2784.01,600.18,608.17,16.98,0000 0000 0000 0000 000000
2016-03-26 12:41:42,0.13,2.79,0.00,17.23,23.01,26.11,14.88,47.14,1016.63,2050.98,2555.51,2466.27,2782.29,599.88,607.89,17.03,0000 0000 0000 0000 000000
2016-03-26 12:46:44,0.15,2.79,0.00,17.23,22.99,26.12,14.88,47.19,1016.62,2050.98,2553.39,2464.78,2780.59,599.79,607.68,17.08,0000 0000 0000 0000 000000
2016-03-26 12:51:45,0.13,2.80,0.00,17.18,22.99,26.17,14.85,47.14,1016.64,2050.98,2551.34,2463.47,2779.00,599.68,607.72,17.13,0000 0000 0000 0000 000000
2016-03-26 12:56:46,0.13,2.81,0.00,17.12,22.97,26.17,14.93,47.13,1016.65,2050.97,2549.20,2462.00,2777.42,600.29,608.56,17.18,0000 0000 0000 0000 000000